Regional Weather Roundup
Issued by NWS

Home | Current Version | Previous Version | Text Only | Print | Product List | Glossary On
Versions: 1 2 3 4 5 6 7 8 9 10 11 12 13 14 15 16 17 18 19 20 21 22 23 24 25 26 27 28 29 30 31 32 33 34 35 36 37 38 39 40 41 42 43 44 45 46 47 48 49 50
000
ASUS45 KPSR 112310
RWRAZ

ARIZONA HOURLY REGIONAL WEATHER ROUNDUP
NATIONAL WEATHER SERVICE PHOENIX AZ
400 PM MST THU FEB 11 2016

NOTE: FAIR INDICATES FEW OR NO CLOUDS BELOW 12,000 FEET WITH NO
SIGNIFICANT WEATHER AND/OR OBSTRUCTIONS TO VISIBILITY.

AZZ001>003-036-120000-
NORTHWEST ARIZONA

CITY           SKY/WX    TMP DP  RH WIND       PRES   REMARKS
BULLHEAD CITY  SUNNY     77  25  14 N18       30.11F
KINGMAN        SUNNY     74  21  13 N5        30.21S
$$

AZZ004>008-015-016-018-120000-
NORTH CENTRAL ARIZONA

CITY           SKY/WX    TMP DP  RH WIND       PRES   REMARKS
GRAND CANYON   SUNNY     64  12  13 VRB6      30.36R
WILLIAMS       SUNNY     64  10  12 W6G13     30.40R
PRESCOTT       SUNNY     74   3   6 N7        30.26S
FLAGSTAFF      SUNNY     59  15  18 E7        30.36S
PAYSON         SUNNY     70  18  13 VRB7      30.27S
PAGE           SUNNY     55  29  36 N6        30.31F
$$

AZZ009>014-017-120000-
NORTHEAST ARIZONA

CITY           SKY/WX    TMP DP  RH WIND       PRES   REMARKS
WINSLOW        SUNNY     65  18  16 CALM      30.31R
SAINT JOHNS    SUNNY     65   8  10 N5        30.30S
WINDOW ROCK    SUNNY     64   0   7 VRB5      30.33S
SHOW LOW       SUNNY     59  10  14 CALM      30.35R
$$

AZZ023-120000-
GREATER PHOENIX AREA

CITY           SKY/WX    TMP DP  RH WIND       PRES   REMARKS
PHOENIX        MOSUNNY   84  25  11 NW5       30.07S
BUCKEYE        SUNNY     81  28  15 S3        30.11S
GLENDALE       SUNNY     82  28  14 VRB3      30.10S
DEER VALLEY    SUNNY     79  28  15 W3        30.09S
SCOTTSDALE     SUNNY     81  24  12 VRB5      30.10F
MESA-FALCON    SUNNY    N/A N/A N/A VRB6      30.09S
MESA-GATEWAY   SUNNY     81  28  15 W6        30.10F
CHANDLER       SUNNY     81  30  16 S7        30.09F
$$

AZZ027-028-120000-
SOUTHWEST MARICOPA COUNTY AND PINAL COUNTY

CITY           SKY/WX    TMP DP  RH WIND       PRES   REMARKS
CASA GRANDE    SUNNY     81  34  18 W3        30.10F
$$

AZZ503-504-507>509-120000-
SOUTHEAST ARIZONA

CITY           SKY/WX    TMP DP  RH WIND       PRES   REMARKS
TUCSON         SUNNY     84   9   6 VRB6      30.14F
DAVIS-MONTHAN  SUNNY     81  12   7 NW7       30.12F
RYAN FIELD     SUNNY     82  27  13 W7        30.13F
NOGALES        SUNNY     82   5   5 NW6       30.17S
SIERRA VISTA   SUNNY     76  -1   5 CALM      30.23S
DOUGLAS        SUNNY     78   7   6 N5        30.20F
SAFFORD        SUNNY     74  20  13 SW7       30.15F
$$

AZZ020-021-025-026-031-120000-
SOUTHWEST ARIZONA

CITY           SKY/WX    TMP DP  RH WIND       PRES   REMARKS
YUMA           MOSUNNY   87  23   9 N7        30.06F
$$

CAZ031-033-041-043-047-048-061-120000-
SOUTHERN CALIFORNIA

CITY           SKY/WX    TMP DP  RH WIND       PRES   REMARKS
DOWNTOWN L.A.  SUNNY     82  41  23 VRB3      30.04S
L.A. AIRPORT   MOSUNNY   73  43  33 W13       30.06S
SAN DIEGO      SUNNY     81  25  12 W9        30.05S
BURBANK        SUNNY     87  24  10 CALM      30.05F
ONTARIO        MOSUNNY   86  23  10 SW6       30.06F
RIVERSIDE      SUNNY     87  24  10 W6        30.05F
PALM SPRINGS   SUNNY     85  23  10 VRB6      30.09F
EL CENTRO NAS  MOSUNNY   86  21   9 N6        30.08S
IMPERIAL       SUNNY     86  20   9 NE3       30.06F
BLYTHE         SUNNY     83  32  16 MISG      30.08F
NEEDLES        SUNNY     82  24  12 N13       30.11F
$$

NVZ020-UTZ003-120000-
SOUTHERN NEVADA-UTAH

CITY           SKY/WX    TMP DP  RH WIND       PRES   REMARKS
LAS VEGAS      MOSUNNY   73  19  13 VRB5      30.15F
SALT LAKE CITY PTSUNNY   33  27  78 N6        30.43S HAZE    WCI  28
$$

NMZ009-TXZ055-120000-
NEW MEXICO-WEST TEXAS

CITY           SKY/WX    TMP DP  RH WIND       PRES   REMARKS
ALBUQUERQUE    MOSUNNY   66  10  11 NW12      30.25S
EL PASO        SUNNY     71  16  12 S6        30.20S
$$


........................KEY........................
SKY/WX - SKY CONDITION/WEATHER
TMP    - TEMPERATURE IN FAHRENHEIT
DP     - DEW POINT IN FAHRENHEIT
RH     - RELATIVE HUMIDITY IN PERCENT
WIND   - DIRECTION AND SPEED IN MILES PER HOUR (MPH)
VRB    - VARIABLE WIND DIRECTION
PRES   - MEAN SEA LEVEL PRESSURE IN INCHES OF MERCURY
         F - FALLING PRESSURE   R - RISING PRESSURE
         S - STEADY PRESSURE
VSB    - VISIBILITY IN MILES
HX     - HEAT INDEX IN FAHRENHEIT
WCI    - WIND CHILL INDEX IN FAHRENHEIT
TC     - TEMPERATURE IN CELSIUS WHICH IS ALSO KNOWN AS
         TEMPERATURE IN CENTIGRADE
AFB    - AIR FORCE BASE
         LUKE AFB IS LUKE AIR FORCE BASE
         DAVIS-MONTHAN IS DAVIS-MONTHAN AIR FORCE BASE
NAS    - NAVAL AIR STATION
         EL CENTRO NAS IS EL CENTRO NAVAL AIR STATION
N/A    - NOT AVAILABLE




USA.gov is the U.S. government's official web portal to all federal, state and local government web resources and services.